Total_Precipitation_Accumulation
2.81 2.68 2.71 2.62 2.47 2.32 2.20 2.11 2.07 1.96 1.91 1.85 1.85 1.85 1.74 1.72 1.76 1.81 1.78 1.84 1.96 1.96 1.89 1.88 1.88 1.96 2.08 2.07 2.14 2.26 2.45 2.68 2.80 2.50 2.33 2.26 2.24 2.28 2.32 2.16 2.00 1.86 1.66
2.32 2.40 2.50 2.41 2.31 2.18 2.08 2.04 2.01 1.86 1.81 1.80 1.80 1.77 1.60 1.54 1.70 1.78 1.73 1.70 1.81 1.80 1.75 1.82 1.81 1.86 1.95 2.00 2.11 2.22 2.38 2.57 2.66 2.70 2.53 2.34 2.25 2.25 2.31 2.27 1.97 1.75 1.65
2.00 2.00 2.07 2.09 2.04 1.99 1.79 1.74 1.76 1.74 1.73 1.71 1.61 1.59 1.54 1.51 1.59 1.61 1.60 1.57 1.58 1.64 1.65 1.72 1.77 1.86 1.86 1.91 1.98 2.03 2.17 2.28 2.49 2.57 2.46 2.33 2.25 2.16 2.34 2.18 2.04 2.15 1.76
1.92 2.00 1.93 1.94 1.99 1.99 1.88 1.75 1.68 1.66 1.64 1.61 1.54 1.49 1.49 1.48 1.39 1.35 1.38 1.44 1.52 1.50 1.46 1.56 1.61 1.68 1.71 1.82 1.80 1.88 1.99 2.19 2.38 2.47 2.32 2.16 2.11 2.16 2.30 2.27 2.19 2.11 1.96
1.78 1.88 1.92 1.84 1.78 1.78 1.82 1.69 1.51 1.45 1.41 1.48 1.42 1.36 1.37 1.33 1.21 1.21 1.25 1.25 1.36 1.38 1.34 1.36 1.38 1.41 1.43 1.47 1.46 1.67 1.88 2.07 2.20 2.30 2.22 2.14 2.09 2.22 2.20 2.13 2.12 2.08 1.93
1.57 1.74 1.82 1.77 1.69 1.63 1.66 1.64 1.59 1.53 1.49 1.46 1.43 1.38 1.31 1.19 1.16 1.08 1.08 1.14 1.22 1.33 1.41 1.36 1.23 1.19 1.16 1.10 1.16 1.32 1.56 1.81 2.07 2.20 2.16 2.15 2.11 2.17 2.26 2.23 2.21 2.26 2.20
1.56 1.58 1.64 1.68 1.73 1.71 1.66 1.65 1.68 1.71 1.68 1.54 1.41 1.37 1.30 1.21 1.12 0.95 0.90 0.97 1.18 1.32 1.41 1.39 1.14 1.02 1.12 1.10 1.15 1.17 1.28 1.42 1.70 2.01 2.13 2.06 2.10 2.18 2.37 2.43 2.38 2.36 2.29
1.52 1.47 1.48 1.49 1.54 1.57 1.63 1.68 1.69 1.66 1.65 1.61 1.47 1.40 1.32 1.11 1.00 0.84 0.85 0.91 1.07 1.08 1.11 1.21 1.27 1.26 1.15 1.18 1.19 1.27 1.34 1.43 1.51 1.65 1.90 1.90 1.89 2.09 2.31 2.36 2.36 2.31 2.23
1.39 1.31 1.28 1.27 1.35 1.38 1.45 1.59 1.69 1.69 1.60 1.48 1.40 1.36 1.29 1.15 1.05 0.95 0.95 0.96 1.02 0.96 0.90 0.95 1.02 1.07 1.06 1.11 1.21 1.42 1.47 1.57 1.53 1.69 1.72 1.67 1.71 1.80 1.84 2.00 2.31 2.51 2.41
1.32 1.20 1.16 1.21 1.31 1.35 1.39 1.54 1.61 1.65 1.51 1.32 1.26 1.28 1.22 1.19 1.06 0.89 0.85 0.84 0.96 0.97 1.00 1.03 0.96 0.83 0.88 1.00 1.22 1.51 1.67 1.70 1.72 1.84 1.83 1.80 1.70 1.69 1.66 1.77 2.19 2.51 2.52
1.19 1.17 1.20 1.24 1.35 1.36 1.45 1.57 1.50 1.38 1.37 1.30 1.24 1.26 1.16 1.03 0.90 0.75 0.72 0.72 0.86 0.94 0.97 1.01 0.99 0.84 0.75 0.82 1.04 1.29 1.49 1.56 1.79 2.05 1.94 1.77 1.74 1.73 1.70 1.70 1.92 2.13 2.17
1.15 1.21 1.26 1.26 1.21 1.20 1.40 1.50 1.45 1.39 1.34 1.29 1.24 1.19 1.07 0.95 0.82 0.72 0.63 0.58 0.62 0.81 1.00 1.00 0.99 0.93 0.86 0.92 1.05 1.20 1.35 1.54 1.77 1.91 1.73 1.58 1.49 1.50 1.57 1.55 1.56 1.61 1.69
1.15 1.29 1.35 1.28 1.33 1.32 1.32 1.36 1.43 1.45 1.31 1.20 1.16 1.09 1.00 0.93 0.82 0.69 0.60 0.56 0.57 0.67 0.86 0.95 0.91 0.87 0.95 1.15 1.27 1.38 1.53 1.76 1.82 1.70 1.59 1.47 1.37 1.42 1.42 1.41 1.41 1.48 1.48
1.22 1.31 1.33 1.33 1.40 1.39 1.32 1.20 1.16 1.16 1.13 1.06 1.02 0.95 0.94 0.94 0.78 0.66 0.67 0.63 0.64 0.69 0.83 0.99 1.04 1.03 1.16 1.33 1.46 1.55 1.67 1.78 1.67 1.54 1.49 1.41 1.31 1.38 1.43 1.39 1.51 1.57 1.59
1.17 1.23 1.23 1.24 1.27 1.34 1.25 1.13 1.07 0.97 0.91 0.89 0.82 0.75 0.80 0.80 0.68 0.64 0.58 0.61 0.69 0.74 0.83 0.99 1.12 1.16 1.25 1.39 1.50 1.56 1.61 1.63 1.57 1.47 1.42 1.37 1.31 1.30 1.27 1.24 1.39 1.51 1.55
1.07 1.06 1.00 1.03 1.06 1.09 1.13 1.09 0.90 0.74 0.64 0.59 0.58 0.56 0.52 0.52 0.50 0.49 0.51 0.58 0.66 0.77 0.89 1.13 1.21 1.19 1.22 1.29 1.39 1.49 1.49 1.47 1.45 1.48 1.50 1.49 1.44 1.33 1.28 1.21 1.25 1.35 1.47
1.00 0.98 0.86 0.81 0.88 0.92 0.91 1.00 0.96 0.73 0.52 0.44 0.44 0.48 0.47 0.42 0.40 0.40 0.45 0.53 0.62 0.75 0.90 1.11 1.22 1.24 1.24 1.26 1.29 1.37 1.42 1.42 1.37 1.40 1.44 1.41 1.33 1.26 1.23 1.21 1.21 1.31 1.36
0.87 0.85 0.80 0.81 0.79 0.77 0.77 0.77 0.79 0.86 0.76 0.59 0.47 0.47 0.47 0.47 0.47 0.43 0.47 0.55 0.61 0.68 0.88 1.08 1.19 1.22 1.24 1.27 1.27 1.25 1.30 1.37 1.33 1.30 1.35 1.33 1.26 1.22 1.24 1.26 1.25 1.21 1.24
0.89 0.86 0.82 0.79 0.75 0.69 0.67 0.64 0.63 0.68 0.72 0.72 0.65 0.58 0.57 0.57 0.58 0.58 0.61 0.66 0.74 0.78 0.84 0.96 1.07 1.14 1.13 1.15 1.21 1.23 1.26 1.31 1.28 1.27 1.29 1.30 1.28 1.27 1.22 1.15 1.11 1.02 1.06
0.84 0.82 0.82 0.79 0.68 0.64 0.62 0.62 0.61 0.65 0.69 0.70 0.72 0.72 0.72 0.77 0.83 0.79 0.73 0.76 0.80 0.79 0.80 0.89 0.99 1.03 1.03 1.00 1.01 1.04 1.08 1.11 1.13 1.19 1.23 1.19 1.13 1.11 1.06 1.01 1.01 1.03 1.06
0.74 0.79 0.81 0.72 0.62 0.58 0.61 0.60 0.58 0.61 0.64 0.68 0.64 0.66 0.82 0.86 0.90 0.87 0.85 0.89 0.94 0.93 0.91 0.93 0.96 0.98 0.99 0.97 0.95 0.93 0.95 1.00 1.03 1.05 1.10 1.09 1.01 0.97 0.93 0.88 0.86 0.87 0.90
0.70 0.72 0.72 0.65 0.61 0.57 0.57 0.58 0.57 0.59 0.62 0.67 0.65 0.66 0.80 0.79 0.83 0.86 0.93 1.00 1.04 1.00 0.97 0.97 0.95 0.94 0.97 1.00 0.98 0.97 0.96 0.99 0.98 1.00 1.02 0.99 0.95 0.90 0.82 0.80 0.78 0.77 0.80
0.67 0.68 0.70 0.70 0.66 0.62 0.60 0.59 0.60 0.63 0.63 0.65 0.66 0.68 0.74 0.81 0.86 0.93 1.00 1.02 1.03 1.04 0.97 0.92 1.00 1.05 0.98 0.93 0.90 0.91 0.91 0.93 0.93 0.99 1.09 1.06 0.96 0.86 0.80 0.77 0.76 0.77 0.76
0.73 0.71 0.67 0.68 0.71 0.72 0.70 0.66 0.59 0.54 0.55 0.57 0.61 0.62 0.66 0.72 0.79 0.84 0.92 0.97 1.02 1.06 1.03 1.01 1.05 1.00 0.89 0.85 0.82 0.82 0.85 0.90 0.92 0.95 0.99 1.02 0.96 0.87 0.80 0.77 0.75 0.77 0.80
0.71 0.71 0.66 0.60 0.58 0.60 0.65 0.65 0.61 0.57 0.54 0.51 0.53 0.56 0.61 0.66 0.71 0.77 0.84 0.88 0.92 1.00 0.98 0.98 0.99 0.90 0.81 0.75 0.73 0.75 0.85 0.84 0.79 0.83 0.88 0.92 0.86 0.80 0.77 0.72 0.73 0.75 0.78
0.61 0.62 0.62 0.56 0.50 0.49 0.48 0.47 0.48 0.51 0.55 0.55 0.52 0.55 0.61 0.62 0.64 0.69 0.74 0.81 0.86 0.89 0.89 0.93 0.93 0.85 0.77 0.72 0.70 0.68 0.65 0.57 0.54 0.59 0.71 0.76 0.72 0.67 0.69 0.70 0.67 0.71 0.76